Weather History for KMOX - June, 2013

Change the Weather History Date:

Sunday, June 16, 2013

  Actual Average Record
Temperature  
Mean Temperature 71 °F -  
Max Temperature 87 °F 73 °F 87 °F (2003)
Min Temperature 55 °F 53 °F 44 °F (1999)
Cooling Degree Days 6    
Growing Degree Days 21 (Base 50)    
Moisture  
Dew Point 51 °F    
Average Humidity 52    
Maximum Humidity 77    
Minimum Humidity 22    
Precipitation  
Precipitation 0.11 in - - ()
Sea Level Pressure  
Sea Level Pressure 29.90 in    
Wind  
Wind Speed 9 mph (West)    
Max Wind Speed 28 mph    
Max Gust Speed 48 mph    
Visibility 10 miles    
Events Rain , Thunderstorm    
Averages and records for this station are not official NWS values.
T = Trace of Precipitation, MM = Missing Value Source: NWS Daily Summary

Daily Weather History Graph

Daily Weather History Graph

Search for Another Location

Airport or City:

Trip Planner

Search our weather history database for the weather conditions in past years. The results will help you decide how hot, cold, wet, or windy it might be!

Date:

Astronomy

Jun. 16, 2013 Rise Set
Actual Time 5:34 AM CDT 9:15 PM CDT
Civil Twilight 4:56 AM CDT 9:53 PM CDT
Nautical Twilight 4:05 AM CDT 10:44 PM CDT
Astronomical Twilight 2:56 AM CDT 11:53 PM CDT
Moon 1:33 PM CDT (6/16) 1:00 AM CDT (6/16)
Length of Visible Light 16h 57m
Length of Day
15h 40m
Waxing Crescent, 50% of the Moon is Illuminated
Jun 16
Waxing Crescent
Jun 16
First Quarter
Jun 23
Full
Jun 29
Last Quarter
Jul 8
New

Hourly Weather History & Observations

Time (CDT) Temp. Dew Point Humidity Pressure Visibility Wind Dir Wind Speed Gust Speed Precip Events Conditions
12:11 AM 62.6 °F 46.4 °F 55% 29.91 in 10.0 mi WNW 6.9 mph - N/A   Clear
12:31 AM 62.6 °F 46.4 °F 55% 29.90 in 10.0 mi WNW 6.9 mph - N/A   Clear
12:51 AM 62.6 °F 46.4 °F 55% 29.90 in 10.0 mi West 6.9 mph - N/A   Clear
1:11 AM 62.6 °F 46.4 °F 55% 29.90 in 10.0 mi West 6.9 mph - N/A   Clear
1:31 AM 62.6 °F 48.2 °F 59% 29.90 in 10.0 mi West 6.9 mph - N/A   Clear
1:51 AM 60.8 °F 48.2 °F 63% 29.91 in 10.0 mi West 4.6 mph - N/A   Clear
2:11 AM 60.8 °F 48.2 °F 63% 29.90 in 10.0 mi West 5.8 mph - N/A   Clear
2:31 AM 59.0 °F 48.2 °F 67% 29.90 in 10.0 mi West 3.5 mph - N/A   Clear
2:51 AM 59.0 °F 48.2 °F 67% 29.91 in 10.0 mi West 4.6 mph - N/A   Clear
3:11 AM 57.2 °F 48.2 °F 72% 29.90 in 10.0 mi West 4.6 mph - N/A   Clear
3:31 AM 57.2 °F 48.2 °F 72% 29.90 in 10.0 mi West 3.5 mph - N/A   Clear
3:51 AM 57.2 °F 48.2 °F 72% 29.90 in 10.0 mi West 4.6 mph - N/A   Clear
4:11 AM 57.2 °F 48.2 °F 72% 29.91 in 10.0 mi WSW 5.8 mph - N/A   Clear
4:31 AM 55.4 °F 48.2 °F 77% 29.91 in 10.0 mi West 4.6 mph - N/A   Clear
4:51 AM 57.2 °F 48.2 °F 72% 29.91 in 10.0 mi West 4.6 mph - N/A   Clear
5:11 AM 57.2 °F 48.2 °F 72% 29.92 in 10.0 mi West 4.6 mph - N/A   Clear
5:31 AM 57.2 °F 48.2 °F 72% 29.92 in 10.0 mi WSW 6.9 mph - N/A   Clear
5:51 AM 57.2 °F 48.2 °F 72% 29.92 in 10.0 mi West 3.5 mph - N/A   Clear
6:11 AM 57.2 °F 48.2 °F 72% 29.93 in 10.0 mi WSW 5.8 mph - N/A   Clear
6:31 AM 60.8 °F 50.0 °F 68% 29.93 in 10.0 mi West 3.5 mph - N/A   Clear
6:51 AM 62.6 °F 51.8 °F 68% 29.93 in 10.0 mi WSW 3.5 mph - N/A   Clear
7:11 AM 64.4 °F 51.8 °F 64% 29.93 in 10.0 mi WSW 3.5 mph - N/A   Clear
7:31 AM 68.0 °F 51.8 °F 56% 29.93 in 10.0 mi West 4.6 mph - N/A   Clear
7:51 AM 69.8 °F 51.8 °F 53% 29.93 in 10.0 mi West 8.1 mph - N/A   Clear
8:11 AM 71.6 °F 51.8 °F 50% 29.93 in 10.0 mi West 10.4 mph - N/A   Clear
8:31 AM 73.4 °F 50.0 °F 44% 29.93 in 10.0 mi West 10.4 mph - N/A   Clear
8:51 AM 75.2 °F 48.2 °F 38% 29.93 in 10.0 mi West 12.7 mph - N/A   Clear
9:11 AM 78.8 °F 50.0 °F 36% 29.93 in 10.0 mi West 10.4 mph - N/A   Clear
9:30 AM 80.6 °F 48.2 °F 32% 29.92 in 10.0 mi West 11.5 mph - N/A   Clear
9:51 AM 80.6 °F 48.2 °F 32% 29.92 in 10.0 mi West 15.0 mph - N/A   Clear
10:11 AM 80.6 °F 46.4 °F 30% 29.92 in 10.0 mi West 15.0 mph 18.4 mph N/A   Clear
10:31 AM 82.4 °F 44.6 °F 26% 29.91 in 10.0 mi WNW 11.5 mph - N/A   Clear
10:51 AM 82.4 °F 44.6 °F 26% 29.91 in 10.0 mi West 12.7 mph 20.7 mph N/A   Clear
11:11 AM 84.2 °F 44.6 °F 25% 29.90 in 10.0 mi West 13.8 mph 21.9 mph N/A   Clear
11:31 AM 84.2 °F 44.6 °F 25% 29.90 in 10.0 mi West 13.8 mph 23.0 mph N/A   Clear
11:51 AM 84.2 °F 42.8 °F 23% 29.90 in 10.0 mi West 11.5 mph 21.9 mph N/A   Clear
12:11 PM 84.2 °F 42.8 °F 23% 29.89 in 10.0 mi WNW 19.6 mph 25.3 mph N/A   Clear
12:31 PM 86.0 °F 42.8 °F 22% 29.89 in 10.0 mi WNW 15.0 mph 26.5 mph N/A   Clear
12:51 PM 86.0 °F 42.8 °F 22% 29.89 in 10.0 mi WNW 17.3 mph 23.0 mph N/A   Clear
1:11 PM 86.0 °F 44.6 °F 23% 29.89 in 10.0 mi West 13.8 mph 24.2 mph N/A   Scattered Clouds
1:31 PM 87.8 °F 44.6 °F 22% 29.89 in 10.0 mi West 17.3 mph 26.5 mph N/A   Clear
1:51 PM 86.0 °F 48.2 °F 27% 29.89 in 10.0 mi North - - N/A   Clear
2:11 PM 86.0 °F 48.2 °F 27% 29.89 in 10.0 mi West 24.2 mph 32.2 mph N/A   Clear
2:31 PM 86.0 °F 48.2 °F 27% 29.88 in 10.0 mi West 20.7 mph 26.5 mph N/A   Clear
2:51 PM 86.0 °F 50.0 °F 29% 29.88 in 10.0 mi West 18.4 mph 28.8 mph N/A   Clear
3:11 PM 82.4 °F 48.2 °F 30% 29.87 in 10.0 mi West 15.0 mph 21.9 mph N/A   Scattered Clouds
3:31 PM 75.2 °F 55.4 °F 50% 29.87 in 7.0 mi West 11.5 mph 36.8 mph 0.07 in Rain , Thunderstorm Light Thunderstorms and Rain
3:51 PM 75.2 °F 57.2 °F 53% 29.88 in 10.0 mi WSW 11.5 mph 29.9 mph 0.08 in Rain Light Rain
4:11 PM 68.0 °F 55.4 °F 64% - 10.0 mi WSW 27.6 mph 48.3 mph N/A   Mostly Cloudy
4:31 PM 69.8 °F 60.8 °F 73% 29.89 in 10.0 mi WSW 19.6 mph 26.5 mph 0.03 in Rain Light Rain
4:51 PM 75.2 °F 60.8 °F 61% 29.89 in 10.0 mi WSW 17.3 mph 26.5 mph 0.03 in   Clear
5:11 PM 73.4 °F 57.2 °F 57% 29.89 in 10.0 mi WSW 10.4 mph - N/A   Scattered Clouds
5:31 PM 75.2 °F 57.2 °F 53% 29.88 in 10.0 mi WSW 13.8 mph 20.7 mph N/A   Clear
5:51 PM 78.8 °F 57.2 °F 47% 29.86 in 10.0 mi WSW 18.4 mph 23.0 mph N/A   Clear
6:11 PM 78.8 °F 57.2 °F 47% 29.86 in 10.0 mi WSW 19.6 mph 25.3 mph N/A   Clear
6:31 PM 78.8 °F 55.4 °F 44% 29.85 in 10.0 mi WSW 17.3 mph 28.8 mph N/A   Clear
6:51 PM 78.8 °F 53.6 °F 42% 29.85 in 10.0 mi WSW 19.6 mph 29.9 mph N/A   Clear
7:11 PM 78.8 °F 55.4 °F 44% 29.85 in 10.0 mi SW 15.0 mph 24.2 mph N/A   Clear
7:31 PM 78.8 °F 55.4 °F 44% 29.85 in 10.0 mi SW 11.5 mph - N/A   Clear
7:51 PM 77.0 °F 55.4 °F 47% 29.85 in 10.0 mi WSW 10.4 mph - N/A   Clear
8:11 PM 75.2 °F 57.2 °F 53% 29.85 in 10.0 mi WSW 11.5 mph - N/A   Clear
8:31 PM 75.2 °F 57.2 °F 53% 29.85 in 10.0 mi WSW 9.2 mph - N/A   Clear
8:51 PM 73.4 °F 57.2 °F 57% 29.85 in 10.0 mi WSW 9.2 mph - N/A   Clear
9:11 PM 71.6 °F 57.2 °F 60% 29.86 in 10.0 mi WSW 10.4 mph - N/A   Clear
9:31 PM 69.8 °F 59.0 °F 68% 29.86 in 10.0 mi West 9.2 mph - N/A   Clear
9:51 PM 69.8 °F 57.2 °F 64% 29.88 in 10.0 mi West 10.4 mph - N/A   Clear
10:11 PM 69.8 °F 57.2 °F 64% 29.89 in 10.0 mi West 6.9 mph - N/A   Clear
10:31 PM 66.2 °F 57.2 °F 73% 29.90 in 10.0 mi WNW 5.8 mph - N/A   Clear
10:51 PM 64.4 °F 57.2 °F 77% 29.90 in 10.0 mi WNW 5.8 mph - N/A   Clear
11:11 PM 64.4 °F 57.2 °F 77% 29.90 in 10.0 mi WNW 5.8 mph - N/A   Clear
11:31 PM 64.4 °F 55.4 °F 73% 29.90 in 10.0 mi NW 5.8 mph - N/A   Clear
11:51 PM 66.2 °F 53.6 °F 64% 29.90 in 10.0 mi NNW 8.1 mph - N/A   Clear